| time (UTC) | temp F | wind direction | speed knots | gust knots | rain 1hr in | rain 24hr in | rain mn in | humidity % | barometer mb |
| 20260508054546 | 44 | 0 | 0.0 | 1.7 | 0.00 | 0.00 | 0.00 | 61 | 1006.2 |
| 20260508053050 | 44 | 0 | 0.0 | 4.3 | 0.00 | 0.00 | 0.00 | 61 | 1006.4 |
| 20260508051606 | 43 | 349 | 1.7 | 3.5 | 0.00 | 0.00 | 0.00 | 69 | 1006.5 |
| 20260508050052 | 44 | 0 | 0.0 | 1.7 | 0.00 | 0.00 | 0.00 | 57 | 1006.9 |
| 20260508044601 | 44 | 349 | 0.9 | 2.6 | 0.00 | 0.13 | 0.00 | 64 | 1006.7 |
| 20260508023047 | 50 | 343 | 0.9 | 3.5 | 0.00 | 0.15 | 0.13 | 49 | 1006.5 |
| 20260508021601 | 51 | 350 | 1.7 | 7.8 | 0.00 | 0.15 | 0.13 | 47 | 1006.5 |
| 20260508020054 | 52 | 5 | 4.3 | 8.7 | 0.00 | 0.15 | 0.13 | 46 | 1006.2 |
| 20260508014552 | 52 | 344 | 6.1 | 9.6 | 0.00 | 0.16 | 0.13 | 47 | 1006.1 |
| 20260508013048 | 52 | 347 | 1.7 | 4.3 | 0.00 | 0.16 | 0.13 | 46 | 1006.0 |
| 20260508011548 | 53 | 344 | 2.6 | 6.1 | 0.00 | 0.16 | 0.13 | 45 | 1006.0 |
| 20260508010053 | 54 | 341 | 0.9 | 7.8 | 0.00 | 0.16 | 0.13 | 42 | 1005.8 |
| 20260508004556 | 55 | 331 | 4.3 | 9.6 | 0.00 | 0.18 | 0.13 | 42 | 1005.4 |
| 20260508003054 | 55 | 346 | 5.2 | 8.7 | 0.00 | 0.18 | 0.13 | 41 | 1005.1 |
| 20260508001550 | 56 | 343 | 2.6 | 5.2 | 0.00 | 0.18 | 0.13 | 42 | 1005.0 |
| 20260508000053 | 57 | 337 | 5.2 | 7.8 | 0.00 | 0.18 | 0.13 | 40 | 1004.7 |
| 20260507234548 | 57 | 349 | 2.6 | 7.0 | 0.00 | 0.18 | 0.13 | 39 | 1004.7 |
| 20260507233053 | 58 | 327 | 4.3 | 8.7 | 0.00 | 0.18 | 0.13 | 38 | 1004.6 |
| 20260507211556 | 61 | 321 | 6.1 | 10.4 | 0.00 | 0.25 | 0.13 | 33 | 1003.3 |
| 20260507210108 | 61 | 280 | 7.8 | 15.6 | 0.00 | 0.25 | 0.13 | 35 | 1003.3 |
| 20260507204550 | 61 | 320 | 7.0 | 13.0 | 0.00 | 0.30 | 0.13 | 34 | 1003.1 |
| 20260507203116 | 61 | 318 | 7.8 | 17.4 | 0.00 | 0.30 | 0.13 | 37 | 1003.1 |
| 20260507201552 | 61 | 355 | 8.7 | 16.5 | 0.00 | 0.30 | 0.13 | 34 | 1003.0 |
| 20260507200046 | 61 | 304 | 7.8 | 15.6 | 0.00 | 0.30 | 0.13 | 39 | 1003.0 |
| 20260507194604 | 59 | 204 | 5.2 | 11.3 | 0.00 | 0.35 | 0.13 | 46 | 1002.9 |
| 20260507193049 | 54 | 178 | 7.0 | 13.0 | 0.00 | 0.35 | 0.13 | 72 | 1003.2 |
| 20260507191554 | 53 | 150 | 6.1 | 8.7 | 0.00 | 0.35 | 0.13 | 77 | 1003.3 |
| 20260507190057 | 51 | 183 | 8.7 | 12.2 | 0.00 | 0.35 | 0.13 | 80 | 1003.3 |
| 20260507184553 | 52 | 175 | 8.7 | 11.3 | 0.00 | 0.35 | 0.13 | 79 | 1003.5 |
| 20260507183056 | 50 | 178 | 9.6 | 13.9 | 0.00 | 0.35 | 0.13 | 81 | 1003.5 |
| 20260507181555 | 50 | 175 | 11.3 | 14.8 | 0.00 | 0.35 | 0.13 | 80 | 1003.8 |
| 20260507093049 | 47 | 0 | 0.0 | 3.5 | 0.00 | 0.35 | 0.13 | 88 | 1005.6 |
| 20260507091546 | 47 | 338 | 4.3 | 7.8 | 0.00 | 0.35 | 0.13 | 87 | 1005.6 |
| 20260507090050 | 48 | 331 | 3.5 | 11.3 | 0.00 | 0.35 | 0.13 | 86 | 1005.6 |
| 20260507084548 | 48 | 338 | 6.1 | 12.2 | 0.00 | 0.35 | 0.13 | 87 | 1005.8 |
| 20260507083049 | 48 | 329 | 7.0 | 11.3 | 0.00 | 0.35 | 0.13 | 90 | 1005.0 |
| 20260507081553 | 49 | 334 | 4.3 | 7.8 | 0.00 | 0.35 | 0.13 | 91 | 1005.4 |
| 20260507080053 | 49 | 333 | 2.6 | 8.7 | 0.00 | 0.35 | 0.13 | 91 | 1005.1 |
| 20260507074558 | 49 | 325 | 4.3 | 8.7 | 0.00 | 0.35 | 0.13 | 91 | 1005.2 |
| 20260507073101 | 49 | 350 | 4.3 | 12.2 | 0.00 | 0.35 | 0.13 | 91 | 1004.9 |
| 20260507071554 | 49 | 335 | 4.3 | 8.7 | 0.00 | 0.35 | 0.13 | 92 | 1005.0 |
| 20260507070105 | 50 | 320 | 3.5 | 6.1 | 0.00 | 0.35 | 0.13 | 93 | 1004.8 |
| 20260507064556 | 50 | 336 | 1.7 | 4.3 | 0.00 | 0.35 | 0.13 | 94 | 1004.4 |